Regional Weather Roundup
Issued by NWS

Home | Current Version | Previous Version | Graphics & Text | Print | Product List | Glossary On
Versions: 1 2 3 4 5 6 7 8 9 10 11 12 13 14 15 16 17 18 19 20 21 22 23 24 25 26 27 28 29 30 31 32 33 34 35 36 37 38 39 40 41 42 43 44 45 46 47 48 49 50
900
ASUS44 KJAN 191810
RWRMS

MISSISSIPPI HOURLY WEATHER ROUNDUP
NATIONAL WEATHER SERVICE JACKSON MS
100 PM CDT FRI SEP 19 2014

NOTE: "FAIR: INDICATES FEW OR NO CLOUDS BELOW 12,000 FEET WITH NO
SIGNIFICANT WEATHER AND/OR OBSTRUCTIONS TO VISIBILITY.

MSZ001>002-007>008-010>013-018>021-025>028-034>036-191900-
NORTHWEST MISSISSIPPI

CITY           SKY/WX    TMP DP  RH WIND       PRES   REMARKS
CLARKSDALE     FAIR      81  68  65 SE3       30.04S
CLEVELAND      FAIR      83  70  64 E3        30.01F
GREENWOOD      SUNNY     86  66  51 CALM      30.01F
6HR MIN TEMP:  68; 6HR MAX TEMP:  87;

GREENVILLE     MOSUNNY   85  66  53 MISG      30.00F
6HR MIN TEMP:  66; 6HR MAX TEMP:  86;

GRENADA        FAIR      84  64  51 E7        30.03S
OLIVE BRANCH   PTSUNNY   79  73  83 SE5       30.05S
OXFORD         FAIR      81  66  61 E6        30.06S
TUNICA         PTCLDY    81  68  65 E6        30.04F
$$

MSZ003>006-009-014>017-022>024-029>033-037>039-191900-
NORTHEAST MISSISSIPPI

CITY           SKY/WX    TMP DP  RH WIND       PRES   REMARKS
COLUMBUS AFB   SUNNY     85  65  50 VRB1      30.02F
6HR MIN TEMP:  67; 6HR MAX TEMP:  85; 6HR PCP: TRACE;

CORINTH        FAIR      82  64  54 CALM      30.04S
GOLDN TRIANGLE MOSUNNY   86  64  48 E7        30.02F
STARKVILLE     FAIR      86  64  48 SE5       30.02S
TUPELO         SUNNY     84  67  56 NE5       30.03F
6HR MIN TEMP:  66; 6HR MAX TEMP:  84;

$$

MSZ040-058-191900-
CENTRAL MISSISSIPPI

CITY           SKY/WX    TMP DP  RH WIND       PRES   REMARKS
JACKSON INTL   MOSUNNY   87  68  52 VRB7      30.00F HX  90
6HR MIN TEMP:  66; 6HR MAX TEMP:  87;

JACKSON HAWKNS MOSUNNY   86  67  52 VRB3      30.00F
6HR MIN TEMP:  68; 6HR MAX TEMP:  87;

MERIDIAN KEY   SUNNY     86  63  45 CALM      30.00F
6HR MIN TEMP:  69; 6HR MAX TEMP:  87;

MERIDIAN NAS   MOSUNNY   88  63  43 SE7       30.00F
6HR MIN TEMP:  69; 6HR MAX TEMP:  88;

RAYMOND        FAIR      88  82  84 SE3       30.00F HX 108
VICKSBURG      SUNNY     87  67  51 N6        30.00S HX  90
6HR MIN TEMP:  66; 6HR MAX TEMP:  88;

$$

MSZ059>079-191900-
SOUTH MISSISSIPPI

CITY           SKY/WX    TMP DP  RH WIND       PRES   REMARKS
BROOKHAVEN     FAIR      84  70  61 E3        30.02S
COLUMBIA       MOCLDY    84  72  65 VRB5      29.98S
HATTIESBURG    SUNNY     86  67  52 E6        29.99F
6HR MIN TEMP:  69; 6HR MAX TEMP:  87;

MCCOMB         MOSUNNY   84  67  56 VRB5      30.00F
6HR MIN TEMP:  70; 6HR MAX TEMP:  84;

NATCHEZ        MOSUNNY   84  72  65 SE6       30.00F
6HR MIN TEMP:  68; 6HR MAX TEMP:  84;

PINE BELT      MOSUNNY   86  66  51 NE3       30.01S
$$

MSZ080>082-191900-
COASTAL MISSISSIPPI

CITY           SKY/WX    TMP DP  RH WIND       PRES   REMARKS
BILOXI         MOSUNNY   86  69  57 SE12      29.97F HX  90
6HR MIN TEMP:  74; 6HR MAX TEMP:  87;

PASCAGOULA     MOSUNNY   86  69  56 NE6       29.98F HX  90
6HR MIN TEMP:  70; 6HR MAX TEMP:  86; 6HR PCP: TRACE;

GULFPORT       MOSUNNY   85  70  60 E8        29.97S
6HR MIN TEMP:  72; 6HR MAX TEMP:  86;

$$



USA.gov is the U.S. government's official web portal to all federal, state and local government web resources and services.